1547820000.27,45258,0.0,0.0,-15.09,-16.59,-16.59,0,*63
1547820001.54,45259,0.0,0.0,-15.07,-16.69,-16.69,0,*6C
1547820002.83,45260,0.0,0.0,-15.09,-16.69,-16.69,0,*68
1547820004.1,45261,0.0,0.0,-15.09,-16.75,-16.69,0,*64
1547820005.34,45262,0.0,0.0,-15.07,-16.69,-16.55,0,*6B
1547820006.58,45263,0.0,0.0,-15.09,-16.83,-16.83,0,*6B
1547820007.88,45264,0.0,0.0,-15.09,-16.69,-16.69,0,*6C
1547820009.14,45265,0.0,0.0,-15.07,-16.65,-16.69,0,*6F
1547820010.38,45266,0.0,0.0,-15.07,-16.69,-16.55,0,*6F
1547820011.62,45267,0.0,0.0,-15.07,-16.69,-16.55,0,*6E
1547820012.87,45268,0.0,0.0,-15.07,-16.65,-16.55,0,*6D
1547820014.09,45269,0.0,0.0,-15.07,-16.55,-16.55,0,*6F
1547820015.34,45270,0.0,0.0,-15.09,-16.75,-16.75,0,*69
1547820016.6,45271,0.0,0.0,-15.09,-16.75,-16.69,0,*65
1547820017.85,45272,0.0,0.0,-15.09,-16.59,-16.59,0,*6B
1547820019.09,45273,0.0,0.0,-15.07,-16.51,-16.41,0,*65
1547820020.3,45274,0.0,0.0,-15.07,-16.55,-16.45,0,*62
1547820021.52,45275,0.0,0.0,-15.07,-16.59,-16.55,0,*6E
1547820022.76,45276,0.0,0.0,-15.07,-16.55,-16.51,0,*65
1547820024.02,45277,0.0,0.0,-15.05,-16.51,-16.37,0,*62
1547820025.29,45278,0.0,0.0,-15.07,-16.65,-16.69,0,*63
1547820026.58,45279,0.0,0.0,-15.05,-16.69,-16.69,0,*6C
1547820027.85,45280,0.0,0.0,-15.05,-16.79,-16.65,0,*67
1547820029.12,45281,0.0,0.0,-15.03,-16.69,-16.65,0,*61
1547820030.36,45282,0.0,0.0,-15.05,-16.55,-16.55,0,*68
1547820031.64,45283,0.0,0.0,-15.05,-16.65,-16.55,0,*6A
1547820032.93,45284,0.0,0.0,-15.05,-16.69,-16.65,0,*62
1547820034.2,45285,0.0,0.0,-15.05,-16.69,-16.55,0,*60
1547820035.46,45286,0.0,0.0,-15.05,-16.51,-16.37,0,*6C
1547820036.73,45287,0.0,0.0,-15.05,-16.51,-16.37,0,*6D
1547820037.97,45288,0.0,0.0,-15.05,-16.55,-16.41,0,*67
1547820039.24,45289,0.0,0.0,-15.05,-16.55,-16.51,0,*67
1547820040.51,45290,0.0,0.0,-15.05,-16.55,-16.51,0,*6F
1547820041.78,45291,0.0,0.0,-15.05,-16.51,-16.41,0,*6B
1547820043.05,45292,0.0,0.0,-15.05,-16.55,-16.51,0,*6D
1547820044.34,45293,0.0,0.0,-15.05,-16.65,-16.51,0,*6F
1547820045.58,45294,0.0,0.0,-15.03,-16.55,-16.51,0,*6D
1547820046.85,45295,0.0,0.0,-15.05,-16.79,-16.69,0,*6F
1547820048.12,45296,0.0,0.0,-15.03,-16.65,-16.65,0,*6B
1547820049.36,45297,0.0,0.0,-15.05,-16.55,-16.55,0,*6C
1547820050.61,45298,0.0,0.0,-15.03,-16.69,-16.55,0,*6A
1547820051.83,45299,0.0,0.0,-15.03,-16.41,-16.41,0,*64
1547820053.07,45300,0.0,0.0,-15.05,-16.41,-16.37,0,*62
1547820054.29,45301,0.0,0.0,-15.03,-16.55,-16.41,0,*61
1547820055.55,45302,0.0,0.0,-15.03,-16.51,-16.51,0,*67
1547820056.84,45303,0.0,0.0,-15.05,-16.51,-16.51,0,*60
1547820058.09,45304,0.0,0.0,-15.03,-16.65,-16.55,0,*62
1547820059.33,45305,0.0,0.0,-15.03,-16.55,-16.51,0,*64
1547820060.59,45306,0.0,0.0,-15.03,-16.65,-16.51,0,*64
1547820061.86,45307,0.0,0.0,-15.03,-16.65,-16.51,0,*65
1547820063.11,45308,0.0,0.0,-15.01,-16.51,-16.45,0,*6A
1547820064.35,45309,0.0,0.0,-15.01,-16.59,-16.45,0,*63
1547820065.62,45310,0.0,0.0,-15.03,-16.65,-16.65,0,*64
1547820066.86,45311,0.0,0.0,-15.03,-16.65,-16.55,0,*66
1547820068.1,45312,0.0,0.0,-15.03,-16.55,-16.51,0,*62
1547820069.34,45313,0.0,0.0,-15.01,-16.45,-16.37,0,*60
1547820070.56,45314,0.0,0.0,-15.03,-16.55,-16.41,0,*65
1547820071.8,45315,0.0,0.0,-15.03,-16.51,-16.37,0,*61
1547820073.06,45316,0.0,0.0,-15.01,-16.45,-16.31,0,*63
1547820074.3,45317,0.0,0.0,-15.01,-16.45,-16.37,0,*64
1547820075.54,45318,0.0,0.0,-15.01,-16.37,-16.37,0,*6E
1547820076.77,45319,0.0,0.0,-15.01,-16.45,-16.45,0,*6F
1547820078.01,45320,0.0,0.0,-14.99,-16.59,-16.51,0,*6D
1547820079.26,45321,0.0,0.0,-15.01,-16.51,-16.45,0,*61
1547820080.47,45322,0.0,0.0,-14.99,-16.45,-16.37,0,*62
1547820081.72,45323,0.0,0.0,-15.01,-16.59,-16.59,0,*66
1547820082.98,45324,0.0,0.0,-15.01,-16.45,-16.51,0,*64
1547820084.24,45325,0.0,0.0,-15.01,-16.45,-16.51,0,*65
1547820085.5,45326,0.0,0.0,-15.01,-16.45,-16.51,0,*66
1547820086.74,45327,0.0,0.0,-15.01,-16.37,-16.37,0,*62
1547820087.98,45328,0.0,0.0,-15.01,-16.45,-16.45,0,*6D
1547820089.24,45329,0.0,0.0,-15.01,-16.23,-16.37,0,*69
1547820090.47,45330,0.0,0.0,-15.01,-16.45,-16.45,0,*64
1547820091.68,45331,0.0,0.0,-14.99,-16.45,-16.45,0,*65
1547820092.89,45332,0.0,0.0,-14.99,-16.37,-16.45,0,*63
1547820094.12,45333,0.0,0.0,-15.01,-16.45,-16.45,0,*67
1547820095.35,45334,0.0,0.0,-14.99,-16.45,-16.51,0,*65
1547820096.59,45335,0.0,0.0,-14.99,-16.37,-16.51,0,*61
1547820097.81,45336,0.0,0.0,-14.99,-16.45,-16.59,0,*6F
1547820099.03,45337,0.0,0.0,-14.99,-16.59,-16.59,0,*63
1547820100.26,45338,0.0,0.0,-14.99,-16.59,-16.65,0,*63
1547820101.5,45339,0.0,0.0,-14.99,-16.59,-16.65,0,*62
1547820102.72,45340,0.0,0.0,-14.99,-16.59,-16.75,0,*6D
1547820103.94,45341,0.0,0.0,-14.99,-16.75,-16.75,0,*62
1547820105.18,45342,0.0,0.0,-14.97,-16.75,-16.83,0,*66
1547820106.43,45343,0.0,0.0,-14.97,-16.75,-16.83,0,*67
1547820107.66,45344,0.0,0.0,-14.99,-17.25,-17.49,0,*6D
1547820108.92,45345,0.0,0.0,-14.99,-17.55,-17.63,0,*63
1547820110.21,45346,0.0,0.0,-15.01,-17.55,-17.55,0,*65
1547820111.49,45347,0.0,0.0,-15.01,-17.41,-17.35,0,*67
1547820112.75,45348,0.0,0.0,-14.99,-17.55,-17.41,0,*6E
1547820114.0,45349,0.0,0.0,-14.99,-17.63,-17.55,0,*6F
1547820115.24,45350,0.0,0.0,-15.01,-17.69,-17.69,0,*62
1547820116.53,45351,0.0,0.0,-15.01,-17.79,-17.63,0,*68
1547820117.81,45352,0.0,0.0,-15.01,-17.79,-17.55,0,*6E
1547820119.05,45353,0.0,0.0,-15.03,-17.69,-17.55,0,*6C
1547820120.31,45354,0.0,0.0,-15.03,-17.55,-17.41,0,*61
1547820121.61,45355,0.0,0.0,-15.05,-17.45,-17.41,0,*67
1547820122.88,45356,0.0,0.0,-15.03,-17.45,-17.45,0,*66
1547820124.15,45357,0.0,0.0,-15.07,-17.41,-17.41,0,*63
1547820125.36,45358,0.0,0.0,-15.07,-17.31,-17.31,0,*6C
1547820126.61,45359,0.0,0.0,-15.09,-17.35,-17.35,0,*63
1547820127.87,45360,0.0,0.0,-15.07,-17.41,-17.25,0,*65
1547820129.14,45361,0.0,0.0,-15.07,-17.25,-17.11,0,*61
1547820130.37,45362,0.0,0.0,-15.07,-17.31,-17.17,0,*61
1547820131.63,45363,0.0,0.0,-15.07,-17.11,-17.17,0,*62
1547820132.89,45364,0.0,0.0,-15.09,-17.03,-16.93,0,*65
1547820134.19,45365,0.0,0.0,-15.09,-17.03,-17.03,0,*6C
1547820135.43,45366,0.0,0.0,-15.09,-16.89,-16.89,0,*6F
1547820136.67,45367,0.0,0.0,-15.09,-16.97,-16.89,0,*61
1547820137.93,45368,0.0,0.0,-15.09,-17.03,-16.97,0,*6D
1547820139.17,45369,0.0,0.0,-15.09,-16.89,-16.89,0,*60
1547820140.39,45370,0.0,0.0,-15.07,-16.83,-16.79,0,*63
1547820141.64,45371,0.0,0.0,-15.09,-16.75,-16.59,0,*67
1547820142.9,45372,0.0,0.0,-15.07,-16.65,-16.65,0,*64
1547820144.15,45373,0.0,0.0,-15.09,-16.59,-16.59,0,*6B
1547820145.39,45374,0.0,0.0,-15.07,-16.41,-16.51,0,*63
1547820146.63,45375,0.0,0.0,-15.09,-16.59,-16.45,0,*60
1547820147.84,45376,0.0,0.0,-15.07,-16.41,-16.37,0,*61
1547820149.06,45377,0.0,0.0,-15.07,-16.41,-16.41,0,*61
1547820150.3,45378,0.0,0.0,-15.07,-16.51,-16.55,0,*6A
1547820151.52,45379,0.0,0.0,-15.03,-16.41,-16.41,0,*6B
1547820152.77,45380,0.0,0.0,-15.05,-16.41,-16.41,0,*6B
1547820153.99,45381,0.0,0.0,-15.03,-16.41,-16.37,0,*6D
1547820155.23,45382,0.0,0.0,-15.05,-16.37,-16.37,0,*69
1547820156.49,45383,0.0,0.0,-15.03,-16.27,-16.27,0,*6E
1547820157.75,45384,0.0,0.0,-15.03,-16.27,-16.23,0,*6D
1547820158.99,45385,0.0,0.0,-15.03,-15.99,-16.09,0,*62
1547820160.27,45386,0.0,0.0,-15.03,-16.13,-16.09,0,*60
1547820161.56,45387,0.0,0.0,-15.01,-16.17,-16.17,0,*68
1547820162.82,45388,0.0,0.0,-14.99,-16.31,-16.17,0,*63
1547820164.08,45389,0.0,0.0,-14.99,-16.23,-16.23,0,*66
1547820165.35,45390,0.0,0.0,-14.99,-16.17,-16.09,0,*61
1547820166.62,45391,0.0,0.0,-14.99,-16.17,-16.17,0,*6F
1547820167.88,45392,0.0,0.0,-14.99,-16.31,-16.31,0,*6C
1547820169.09,45393,0.0,0.0,-14.99,-16.37,-16.37,0,*6D
1547820170.35,45394,0.0,0.0,-14.99,-16.23,-16.23,0,*6A
1547820171.64,45395,0.0,0.0,-14.97,-16.27,-16.13,0,*62
1547820172.91,45396,0.0,0.0,-14.97,-16.41,-16.31,0,*61
1547820174.16,45397,0.0,0.0,-14.95,-16.27,-16.27,0,*65
1547820175.4,45398,0.0,0.0,-14.95,-16.41,-16.31,0,*6D
1547820176.61,45399,0.0,0.0,-14.95,-16.55,-16.45,0,*6A
1547820177.84,45400,0.0,0.0,-14.95,-16.69,-16.55,0,*63
1547820179.08,45401,0.0,0.0,-14.95,-16.69,-16.59,0,*6E
1547820180.37,45402,0.0,0.0,-14.97,-16.69,-16.69,0,*6C
1547820181.62,45403,0.0,0.0,-14.97,-16.75,-16.75,0,*6D
1547820182.85,45404,0.0,0.0,-14.97,-16.89,-16.89,0,*6A
1547820184.15,45405,0.0,0.0,-14.97,-17.03,-17.03,0,*6B
1547820185.38,45406,0.0,0.0,-14.95,-17.21,-17.31,0,*6B
1547820186.64,45407,0.0,0.0,-14.95,-17.21,-17.21,0,*6B
1547820187.93,45408,0.0,0.0,-14.97,-17.07,-17.03,0,*62
1547820189.17,45409,0.0,0.0,-14.97,-16.83,-16.83,0,*67
1547820190.41,45410,0.0,0.0,-14.97,-16.75,-16.89,0,*6C
1547820191.65,45411,0.0,0.0,-14.97,-16.83,-16.93,0,*6F
1547820192.88,45412,0.0,0.0,-14.97,-16.89,-16.93,0,*66
1547820194.14,45413,0.0,0.0,-14.99,-17.11,-17.41,0,*67
1547820195.36,45414,0.0,0.0,-14.99,-17.35,-17.69,0,*6C
1547820196.6,45415,0.0,0.0,-14.99,-17.49,-17.63,0,*6C
1547820197.81,45416,0.0,0.0,-14.99,-17.69,-17.83,0,*63
1547820199.07,45417,0.0,0.0,-14.99,-17.79,-17.79,0,*66
1547820200.33,45418,0.0,0.0,-14.99,-17.63,-17.63,0,*69
1547820201.54,45419,0.0,0.0,-14.99,-17.69,-17.49,0,*6A
1547820202.8,45420,0.0,0.0,-15.01,-17.69,-17.55,0,*6D
1547820204.03,45421,0.0,0.0,-15.01,-17.69,-17.49,0,*61
1547820205.32,45422,0.0,0.0,-15.01,-17.79,-17.55,0,*6E
1547820206.6,45423,0.0,0.0,-15.01,-17.79,-17.55,0,*6F
1547820207.84,45424,0.0,0.0,-15.03,-17.73,-17.59,0,*6C
1547820209.13,45425,0.0,0.0,-15.05,-17.55,-17.41,0,*66
1547820210.37,45426,0.0,0.0,-15.03,-17.31,-17.17,0,*62
1547820211.67,45427,0.0,0.0,-15.05,-17.17,-17.11,0,*67
1547820212.96,45428,0.0,0.0,-15.05,-17.25,-17.25,0,*6E
1547820214.19,45429,0.0,0.0,-15.05,-17.31,-17.31,0,*6F
1547820215.46,45430,0.0,0.0,-15.05,-17.41,-17.31,0,*60
1547820216.73,45431,0.0,0.0,-15.03,-17.45,-17.45,0,*60
1547820218.03,45432,0.0,0.0,-15.05,-17.45,-17.55,0,*64
1547820219.32,45433,0.0,0.0,-15.05,-17.59,-17.59,0,*64
1547820220.58,45434,0.0,0.0,-15.07,-17.55,-17.59,0,*6D
1547820221.82,45435,0.0,0.0,-15.07,-17.69,-17.59,0,*63
1547820223.09,45436,0.0,0.0,-15.05,-17.73,-17.59,0,*69
1547820224.33,45437,0.0,0.0,-15.07,-17.73,-17.59,0,*6A
1547820225.56,45438,0.0,0.0,-15.07,-17.73,-17.59,0,*65
1547820226.8,45439,0.0,0.0,-15.07,-17.45,-17.31,0,*6F
1547820228.05,45440,0.0,0.0,-15.09,-17.49,-17.35,0,*67
1547820229.29,45441,0.0,0.0,-15.07,-17.73,-17.55,0,*67
1547820230.55,45442,0.0,0.0,-15.09,-17.73,-17.63,0,*6F
1547820231.76,45443,0.0,0.0,-15.07,-17.73,-17.73,0,*61
1547820232.97,45444,0.0,0.0,-15.07,-17.73,-17.73,0,*66
1547820234.26,45445,0.0,0.0,-15.09,-17.93,-17.93,0,*69
1547820235.51,45446,0.0,0.0,-15.13,-18.07,-17.87,0,*66
1547820236.77,45447,0.0,0.0,-15.13,-18.07,-17.93,0,*62
1547820238.04,45448,0.0,0.0,-15.15,-17.97,-17.93,0,*6D
1547820239.3,45449,0.0,0.0,-15.15,-17.93,-17.93,0,*68
1547820240.56,45450,0.0,0.0,-15.15,-17.93,-17.79,0,*64
1547820241.83,45451,0.0,0.0,-15.15,-17.93,-17.79,0,*65
1547820243.07,45452,0.0,0.0,-15.15,-17.79,-17.69,0,*63
1547820244.33,45453,0.0,0.0,-15.15,-17.79,-17.63,0,*68
1547820245.61,45454,0.0,0.0,-15.17,-17.79,-17.55,0,*68
1547820246.85,45455,0.0,0.0,-15.19,-17.73,-17.63,0,*68
1547820248.09,45456,0.0,0.0,-15.17,-17.83,-17.69,0,*60
1547820249.34,45457,0.0,0.0,-15.17,-17.83,-17.83,0,*65
1547820250.55,45458,0.0,0.0,-15.19,-17.83,-17.73,0,*6B
1547820251.77,45459,0.0,0.0,-15.19,-17.83,-17.83,0,*65
1547820252.99,45460,0.0,0.0,-15.19,-17.87,-17.69,0,*6F
1547820254.22,45461,0.0,0.0,-15.19,-17.87,-17.83,0,*6A
1547820255.44,45462,0.0,0.0,-15.19,-17.87,-17.87,0,*6D
1547820256.66,45463,0.0,0.0,-15.19,-17.83,-17.83,0,*6C
1547820257.91,45464,0.0,0.0,-15.21,-17.87,-17.83,0,*64
1547820259.16,45465,0.0,0.0,-15.21,-17.87,-17.69,0,*61
1547820260.42,45466,0.0,0.0,-15.23,-17.79,-17.59,0,*62
1547820261.7,45467,0.0,0.0,-15.21,-17.97,-17.87,0,*62
1547820262.94,45468,0.0,0.0,-15.23,-17.87,-17.63,0,*64
1547820264.21,45469,0.0,0.0,-15.23,-17.63,-17.59,0,*66
1547820265.43,45470,0.0,0.0,-15.23,-17.49,-17.35,0,*6C
1547820266.65,45471,0.0,0.0,-15.23,-17.49,-17.35,0,*6D
1547820267.92,45472,0.0,0.0,-15.23,-17.63,-17.63,0,*65
1547820269.16,45473,0.0,0.0,-15.23,-17.73,-17.59,0,*6C
1547820270.42,45474,0.0,0.0,-15.27,-17.59,-17.69,0,*64
1547820271.68,45475,0.0,0.0,-15.25,-17.79,-17.63,0,*6F
1547820272.91,45476,0.0,0.0,-15.25,-17.79,-17.73,0,*6D
1547820274.17,45477,0.0,0.0,-15.25,-17.93,-17.63,0,*69
1547820275.44,45478,0.0,0.0,-15.23,-17.93,-17.63,0,*60
1547820276.68,45479,0.0,0.0,-15.23,-18.11,-17.63,0,*64
1547820277.92,45480,0.0,0.0,-15.23,-18.11,-17.63,0,*62
1547820279.18,45481,0.0,0.0,-15.25,-17.93,-17.45,0,*64
1547820280.42,45482,0.0,0.0,-15.25,-17.59,-17.31,0,*62
1547820281.66,45483,0.0,0.0,-15.27,-17.49,-17.35,0,*64
1547820282.95,45484,0.0,0.0,-15.27,-17.25,-17.21,0,*6C
1547820284.18,45485,0.0,0.0,-15.25,-17.31,-17.17,0,*6F
1547820285.48,45486,0.0,0.0,-15.27,-17.21,-17.07,0,*6E
1547820286.75,45487,0.0,0.0,-15.25,-17.17,-17.03,0,*6C
1547820288.01,45488,0.0,0.0,-15.25,-17.11,-17.11,0,*66
1547820289.28,45489,0.0,0.0,-15.25,-17.03,-17.03,0,*67
1547820290.55,45490,0.0,0.0,-15.25,-17.03,-17.03,0,*6F
1547820291.82,45491,0.0,0.0,-15.25,-17.17,-17.11,0,*68
1547820293.12,45492,0.0,0.0,-15.27,-17.21,-17.07,0,*6B
1547820294.38,45493,0.0,0.0,-15.25,-17.11,-17.03,0,*6F
1547820295.65,45494,0.0,0.0,-15.25,-17.11,-17.11,0,*6B
1547820296.95,45495,0.0,0.0,-15.27,-17.17,-17.07,0,*69
1547820298.21,45496,0.0,0.0,-15.25,-17.17,-17.17,0,*69
1547820299.48,45497,0.0,0.0,-15.25,-17.17,-17.17,0,*68
1547820300.72,45498,0.0,0.0,-15.25,-17.03,-16.89,0,*64
1547820301.93,45499,0.0,0.0,-15.25,-16.97,-16.89,0,*69
1547820303.14,45500,0.0,0.0,-15.25,-16.97,-16.89,0,*68
1547820304.37,45501,0.0,0.0,-15.25,-16.75,-16.75,0,*66
1547820305.58,45502,0.0,0.0,-15.25,-16.55,-16.45,0,*64
1547820306.82,45503,0.0,0.0,-15.25,-16.41,-16.31,0,*63
1547820308.08,45504,0.0,0.0,-15.23,-16.31,-16.27,0,*62
1547820309.33,45505,0.0,0.0,-15.23,-16.41,-16.31,0,*63
1547820310.62,45506,0.0,0.0,-15.21,-16.27,-16.13,0,*62
1547820311.89,45507,0.0,0.0,-15.23,-16.23,-16.17,0,*61
1547820313.19,45508,0.0,0.0,-15.21,-16.27,-16.27,0,*6B
1547820314.46,45509,0.0,0.0,-15.19,-16.13,-16.13,0,*61
1547820315.73,45510,0.0,0.0,-15.17,-16.09,-16.03,0,*6D
1547820317.02,45511,0.0,0.0,-15.17,-16.23,-16.23,0,*66
1547820318.31,45512,0.0,0.0,-15.17,-16.17,-16.09,0,*6A
1547820319.58,45513,0.0,0.0,-15.17,-16.09,-16.03,0,*6E
1547820320.83,45514,0.0,0.0,-15.15,-16.09,-16.03,0,*6B
1547820322.1,45515,0.0,0.0,-15.15,-16.23,-16.17,0,*67
1547820323.34,45516,0.0,0.0,-15.15,-16.41,-16.27,0,*63
1547820324.63,45517,0.0,0.0,-15.13,-16.31,-16.27,0,*63
1547820325.87,45518,0.0,0.0,-15.15,-16.51,-16.45,0,*68
1547820327.14,45519,0.0,0.0,-15.13,-16.55,-16.31,0,*68
1547820328.38,45520,0.0,0.0,-15.13,-16.59,-16.55,0,*6C
1547820329.65,45521,0.0,0.0,-15.13,-16.41,-16.27,0,*61
1547820330.95,45522,0.0,0.0,-15.13,-16.27,-16.13,0,*65
1547820332.19,45523,0.0,0.0,-15.13,-16.03,-16.03,0,*63
1547820333.43,45524,0.0,0.0,-15.09,-16.03,-15.99,0,*6F
1547820334.7,45525,0.0,0.0,-15.09,-15.95,-15.81,0,*6B
1547820335.94,45526,0.0,0.0,-15.07,-15.89,-15.75,0,*60
1547820337.24,45527,0.0,0.0,-15.05,-16.27,-16.13,0,*67
1547820338.48,45528,0.0,0.0,-15.05,-16.37,-16.37,0,*6F
1547820339.69,45529,0.0,0.0,-15.03,-16.41,-16.37,0,*69
1547820340.99,45530,0.0,0.0,-15.05,-16.13,-16.13,0,*66
1547820342.26,45531,0.0,0.0,-15.05,-16.37,-16.27,0,*66
1547820343.53,45532,0.0,0.0,-15.05,-16.37,-16.27,0,*65
1547820344.77,45533,0.0,0.0,-15.05,-16.41,-16.37,0,*64
1547820346.02,45534,0.0,0.0,-15.03,-16.37,-16.27,0,*65
1547820347.28,45535,0.0,0.0,-15.03,-16.27,-16.23,0,*61
1547820348.54,45536,0.0,0.0,-15.03,-16.27,-16.23,0,*62
1547820349.83,45537,0.0,0.0,-15.05,-16.27,-16.13,0,*66
1547820351.11,45538,0.0,0.0,-15.03,-16.13,-16.13,0,*68
1547820352.37,45539,0.0,0.0,-15.03,-16.23,-16.13,0,*6A
1547820353.64,45540,0.0,0.0,-15.03,-16.23,-16.13,0,*64
1547820354.9,45541,0.0,0.0,-15.03,-16.27,-16.13,0,*61
1547820356.2,45542,0.0,0.0,-15.01,-16.17,-16.09,0,*68
1547820357.47,45543,0.0,0.0,-15.01,-16.09,-16.03,0,*6C
1547820358.76,45544,0.0,0.0,-15.01,-16.23,-16.09,0,*69
1547820360.02,45545,0.0,0.0,-15.01,-16.37,-16.31,0,*66
1547820361.31,45546,0.0,0.0,-15.01,-16.31,-16.23,0,*60
1547820362.56,45547,0.0,0.0,-14.99,-16.31,-16.31,0,*62
1547820363.86,45548,0.0,0.0,-15.01,-16.23,-16.09,0,*65
1547820365.13,45549,0.0,0.0,-15.01,-16.09,-16.03,0,*66
1547820366.34,45550,0.0,0.0,-14.99,-16.03,-16.03,0,*64
1547820367.55,45551,0.0,0.0,-14.99,-15.95,-15.95,0,*65
1547820368.77,45552,0.0,0.0,-14.99,-15.95,-15.95,0,*66
1547820369.98,45553,0.0,0.0,-14.99,-16.03,-15.95,0,*6B
1547820371.22,45554,0.0,0.0,-14.99,-16.09,-16.03,0,*6A
1547820372.48,45555,0.0,0.0,-14.97,-15.99,-15.89,0,*6E
1547820373.71,45556,0.0,0.0,-14.97,-15.99,-15.99,0,*6C
1547820374.94,45557,0.0,0.0,-14.97,-15.99,-16.03,0,*6D
1547820376.18,45558,0.0,0.0,-14.97,-16.03,-16.03,0,*62
1547820377.45,45559,0.0,0.0,-14.95,-16.13,-15.89,0,*61
1547820378.68,45560,0.0,0.0,-14.95,-15.89,-15.99,0,*6A
1547820379.89,45561,0.0,0.0,-14.95,-16.03,-16.03,0,*6A
1547820381.11,45562,0.0,0.0,-14.95,-15.99,-15.89,0,*68
1547820382.32,45563,0.0,0.0,-14.95,-16.03,-16.03,0,*68
1547820383.53,45564,0.0,0.0,-14.95,-16.03,-16.03,0,*6F
1547820384.77,45565,0.0,0.0,-14.95,-16.13,-16.03,0,*6F
1547820386.0,45566,0.0,0.0,-14.93,-15.99,-15.99,0,*6B
1547820387.26,45567,0.0,0.0,-14.93,-16.09,-15.99,0,*60
1547820388.56,45568,0.0,0.0,-14.91,-16.13,-16.09,0,*6C
1547820389.85,45569,0.0,0.0,-14.93,-16.13,-16.13,0,*64
1547820391.14,45570,0.0,0.0,-14.93,-16.09,-16.09,0,*6C
1547820392.41,45571,0.0,0.0,-14.93,-16.09,-15.99,0,*67
1547820393.67,45572,0.0,0.0,-14.93,-15.99,-15.85,0,*63
1547820394.91,45573,0.0,0.0,-14.91,-15.95,-15.95,0,*6D
1547820396.2,45574,0.0,0.0,-14.91,-15.85,-15.85,0,*6A
1547820397.49,45575,0.0,0.0,-14.93,-15.85,-15.81,0,*6D
1547820398.78,45576,0.0,0.0,-14.91,-15.85,-15.81,0,*6C
1547820400.05,45577,0.0,0.0,-14.91,-15.95,-15.85,0,*68
1547820401.31,45578,0.0,0.0,-14.89,-15.81,-15.81,0,*6F
1547820402.59,45579,0.0,0.0,-14.89,-15.89,-15.81,0,*66
1547820403.86,45580,0.0,0.0,-14.89,-15.89,-15.81,0,*60
1547820405.13,45581,0.0,0.0,-14.85,-15.89,-15.81,0,*6D
1547820406.37,45582,0.0,0.0,-14.89,-15.81,-15.75,0,*61
1547820407.64,45583,0.0,0.0,-14.85,-15.81,-15.81,0,*67
1547820408.9,45584,0.0,0.0,-14.85,-16.23,-16.17,0,*67
1547820410.17,45585,0.0,0.0,-14.89,-16.17,-16.17,0,*6D
1547820411.41,45586,0.0,0.0,-14.89,-15.95,-15.89,0,*63
1547820412.66,45587,0.0,0.0,-14.85,-16.09,-15.95,0,*65
1547820413.93,45588,0.0,0.0,-14.85,-16.17,-16.17,0,*6C
1547820415.17,45589,0.0,0.0,-14.85,-16.09,-16.03,0,*67
1547820416.44,45590,0.0,0.0,-14.85,-16.17,-16.09,0,*6A
1547820417.7,45591,0.0,0.0,-14.85,-16.17,-16.09,0,*6B
1547820418.91,45592,0.0,0.0,-14.85,-16.37,-16.37,0,*67
1547820420.14,45593,0.0,0.0,-14.89,-16.59,-16.59,0,*6A
1547820421.35,45594,0.0,0.0,-14.85,-16.79,-16.75,0,*6D
1547820422.58,45595,0.0,0.0,-14.89,-16.79,-16.75,0,*60
1547820423.85,45596,0.0,0.0,-14.89,-16.65,-16.65,0,*6F
1547820425.08,45597,0.0,0.0,-14.85,-16.59,-16.51,0,*6A
1547820426.3,45598,0.0,0.0,-14.85,-16.75,-16.59,0,*63
1547820427.51,45599,0.0,0.0,-14.89,-16.45,-16.37,0,*65
1547820428.72,45600,0.0,0.0,-14.85,-16.45,-16.37,0,*6A
1547820429.99,45601,0.0,0.0,-14.89,-16.23,-16.23,0,*62
1547820431.26,45602,0.0,0.0,-14.89,-16.23,-16.17,0,*66
1547820432.53,45603,0.0,0.0,-14.89,-16.17,-16.17,0,*60
1547820433.81,45604,0.0,0.0,-14.89,-16.09,-16.09,0,*67
1547820435.08,45605,0.0,0.0,-14.89,-16.23,-16.09,0,*6E
1547820436.34,45606,0.0,0.0,-14.85,-16.31,-16.17,0,*6D
1547820437.61,45607,0.0,0.0,-14.85,-16.17,-16.09,0,*67
1547820438.87,45608,0.0,0.0,-14.85,-16.23,-16.23,0,*67
1547820440.13,45609,0.0,0.0,-14.85,-16.23,-16.09,0,*6E
1547820441.4,45610,0.0,0.0,-14.89,-16.23,-16.17,0,*65
1547820442.66,45611,0.0,0.0,-14.85,-16.23,-16.23,0,*6F
1547820443.92,45612,0.0,0.0,-14.85,-16.31,-16.23,0,*6F
1547820445.18,45613,0.0,0.0,-14.85,-16.23,-16.23,0,*6D
1547820446.44,45614,0.0,0.0,-14.85,-16.31,-16.09,0,*61
1547820447.7,45615,0.0,0.0,-14.85,-16.23,-16.17,0,*6C
1547820448.99,45616,0.0,0.0,-14.83,-16.27,-16.17,0,*6D
1547820450.27,45617,0.0,0.0,-14.83,-16.27,-16.27,0,*6F
1547820451.56,45618,0.0,0.0,-14.83,-16.27,-16.13,0,*67
1547820452.82,45619,0.0,0.0,-14.83,-16.13,-16.03,0,*60
1547820454.11,45620,0.0,0.0,-14.83,-16.27,-16.13,0,*6C
1547820455.37,45621,0.0,0.0,-14.83,-16.13,-16.03,0,*6B
1547820456.63,45622,0.0,0.0,-14.81,-16.27,-16.13,0,*6C
1547820457.91,45623,0.0,0.0,-14.83,-16.27,-16.27,0,*68
1547820459.18,45624,0.0,0.0,-14.81,-16.27,-16.17,0,*6E
1547820460.44,45625,0.0,0.0,-14.81,-16.27,-16.27,0,*6C
1547820461.72,45626,0.0,0.0,-14.83,-16.31,-16.31,0,*6D
1547820462.98,45627,0.0,0.0,-14.81,-16.27,-16.27,0,*6E
1547820464.26,45628,0.0,0.0,-14.83,-16.27,-16.17,0,*60
1547820465.55,45629,0.0,0.0,-14.83,-16.17,-16.17,0,*62
1547820466.82,45630,0.0,0.0,-14.81,-16.17,-16.17,0,*68
1547820468.08,45631,0.0,0.0,-14.81,-16.31,-16.27,0,*6E
1547820469.34,45632,0.0,0.0,-14.81,-16.31,-16.17,0,*6E
1547820470.61,45633,0.0,0.0,-14.81,-16.17,-16.17,0,*6B
1547820471.87,45634,0.0,0.0,-14.81,-16.27,-16.17,0,*6F
1547820473.15,45635,0.0,0.0,-14.79,-16.27,-16.23,0,*6E
1547820474.43,45636,0.0,0.0,-14.79,-16.27,-16.23,0,*6D
1547820475.69,45637,0.0,0.0,-14.81,-16.31,-16.17,0,*6B
1547820476.96,45638,0.0,0.0,-14.83,-16.41,-16.31,0,*65
1547820478.22,45639,0.0,0.0,-14.81,-16.27,-16.17,0,*62
1547820479.46,45640,0.0,0.0,-14.81,-16.27,-16.03,0,*69
1547820480.72,45641,0.0,0.0,-14.81,-16.17,-16.27,0,*6D
1547820481.97,45642,0.0,0.0,-14.81,-16.31,-16.31,0,*6D
1547820483.23,45643,0.0,0.0,-14.81,-16.27,-16.27,0,*6C
1547820484.45,45644,0.0,0.0,-14.81,-16.45,-16.55,0,*6A
1547820485.68,45645,0.0,0.0,-14.81,-16.41,-16.31,0,*6D
1547820486.95,45646,0.0,0.0,-14.81,-16.17,-16.17,0,*69
1547820488.22,45647,0.0,0.0,-14.81,-16.17,-16.13,0,*6C
1547820489.5,45648,0.0,0.0,-14.79,-16.27,-16.27,0,*60
1547820490.71,45649,0.0,0.0,-14.81,-16.55,-16.55,0,*66
1547820491.93,45650,0.0,0.0,-14.81,-16.55,-16.55,0,*6E
1547820493.15,45651,0.0,0.0,-14.81,-16.59,-16.59,0,*6F
1547820494.36,45652,0.0,0.0,-14.81,-16.45,-16.41,0,*68
1547820495.57,45653,0.0,0.0,-14.81,-16.45,-16.41,0,*69
1547820496.79,45654,0.0,0.0,-14.81,-16.55,-16.55,0,*6A
1547820498.03,45655,0.0,0.0,-14.81,-16.59,-16.69,0,*68
1547820499.27,45656,0.0,0.0,-14.81,-16.69,-16.59,0,*6B
1547820500.51,45657,0.0,0.0,-14.83,-16.59,-16.59,0,*6B
1547820501.75,45658,0.0,0.0,-14.81,-16.69,-16.59,0,*65
1547820502.97,45659,0.0,0.0,-14.81,-16.59,-16.59,0,*67
1547820504.18,45660,0.0,0.0,-14.81,-16.45,-16.41,0,*69
1547820505.41,45661,0.0,0.0,-14.81,-16.31,-16.41,0,*6B
1547820506.63,45662,0.0,0.0,-14.81,-16.55,-16.55,0,*6F
1547820507.85,45663,0.0,0.0,-14.83,-16.93,-16.93,0,*6C
1547820509.11,45664,0.0,0.0,-14.83,-17.31,-17.21,0,*6A
1547820510.34,45665,0.0,0.0,-14.83,-17.35,-17.31,0,*6E
1547820511.57,45666,0.0,0.0,-14.83,-17.31,-17.31,0,*69
1547820512.86,45667,0.0,0.0,-14.83,-17.07,-17.03,0,*6C
1547820514.12,45668,0.0,0.0,-14.85,-17.21,-17.11,0,*62
1547820515.39,45669,0.0,0.0,-14.85,-17.11,-17.07,0,*67
1547820516.6,45670,0.0,0.0,-14.89,-16.93,-16.93,0,*64
1547820517.81,45671,0.0,0.0,-14.89,-16.93,-16.79,0,*61
1547820519.02,45672,0.0,0.0,-14.85,-16.97,-16.93,0,*6E
1547820520.23,45673,0.0,0.0,-14.89,-16.97,-16.97,0,*67
1547820521.48,45674,0.0,0.0,-14.89,-17.07,-16.97,0,*68
1547820522.74,45675,0.0,0.0,-14.89,-17.25,-17.25,0,*61
1547820524.01,45676,0.0,0.0,-14.89,-17.11,-17.07,0,*65
1547820525.31,45677,0.0,0.0,-14.91,-17.45,-17.45,0,*6A
1547820526.59,45678,0.0,0.0,-14.91,-17.55,-17.55,0,*65
1547820527.88,45679,0.0,0.0,-14.91,-17.55,-17.55,0,*64
1547820529.17,45680,0.0,0.0,-14.93,-17.45,-17.55,0,*61
1547820530.46,45681,0.0,0.0,-14.93,-17.59,-17.59,0,*61
1547820531.69,45682,0.0,0.0,-14.95,-17.73,-17.63,0,*65
1547820532.94,45683,0.0,0.0,-14.95,-17.59,-17.63,0,*6C
1547820534.23,45684,0.0,0.0,-14.97,-17.63,-17.59,0,*69
1547820535.51,45685,0.0,0.0,-14.97,-17.63,-17.63,0,*61
1547820536.78,45686,0.0,0.0,-14.97,-17.49,-17.45,0,*6E
1547820538.03,45687,0.0,0.0,-14.97,-17.35,-17.35,0,*63
1547820539.3,45688,0.0,0.0,-14.99,-17.41,-17.41,0,*62
1547820540.59,45689,0.0,0.0,-15.01,-17.21,-17.11,0,*60
1547820541.88,45690,0.0,0.0,-15.01,-17.25,-17.21,0,*6F
1547820543.11,45691,0.0,0.0,-15.01,-16.97,-16.93,0,*6E
1547820544.33,45692,0.0,0.0,-14.99,-16.79,-16.75,0,*65
1547820545.58,45693,0.0,0.0,-15.01,-16.75,-16.75,0,*68